User: anonymous   Login
Location: Unspecified
(0.0000°N, 0.0000°E)
Time: 22:18:35
(UTC+00:00)
Language:

TBA - TO BE ASSIGNED - Orbit

View from above orbital plane
View from above orbital plane
View from above satellite
View from above satellite

Ground track
Ground track

The orbit is defined by the following mean orbital elements,

1 67473U          26145.34000250 +.00000000 +00000-0 +81124-3 0 00001
2 67473  43.0001 132.4365 0001421 271.9198  88.1491 15.27585765    08
Epoch (UTC): 25 May 2026 08:09:36
Eccentricity: 0.0001421
inclination: 43.0001°
perigee height: 482 km
apogee height: 484 km
right ascension of ascending node: 132.4365°
argument of perigee: 271.9198°
revolutions per day: 15.27585765
mean anomaly at epoch: 88.1491°

The dashed part of the orbit path shows where the satellite is in the earth's shadow,  

DLR